Location: Piotrkow Trybunalski
(51.4000°N, 19.6830°E)
Time: 16:22:48
(UTC+01:00)

Transit 4A - Visible Passes

Search period start: 29 January 2023 00:00
Search period end: 08 February 2023 00:00
Orbit: 871 x 973 km, 66.8° (Epoch: 28 January)

Date Brightness Start Highest point End Pass type
(mag) Time Alt. Az. Time Alt. Az. Time Alt. Az.
29 Jan 8.4 18:00:40 10° S 18:05:49 33° ESE 18:08:11 24° ENE visible
29 Jan 8.2 19:46:08 10° SW 19:51:44 59° NW 19:51:44 59° NW visible
29 Jan 10.6 21:34:54 10° WNW 21:35:17 11° WNW 21:35:17 11° WNW visible
30 Jan 8.0 18:09:19 10° S 18:14:51 47° ESE 18:17:54 25° ENE visible
30 Jan 8.6 19:55:41 10° WSW 20:01:15 45° NW 20:01:27 45° NW visible
30 Jan 10.6 21:44:49 10° WNW 21:45:01 11° WNW 21:45:01 11° WNW visible
31 Jan 7.7 18:18:13 10° SSW 18:23:57 65° ESE 18:27:32 24° NE visible
31 Jan 9.0 20:05:21 10° WSW 20:10:41 36° NW 20:11:05 36° NNW visible
01 Feb 7.7 18:27:18 10° SW 18:33:08 87° SE 18:37:04 22° NE visible
01 Feb 9.3 20:15:08 10° W 20:20:11 30° NNW 20:20:37 29° NNW visible
02 Feb 8.0 18:36:34 10° SW 18:42:23 71° NW 18:46:31 20° NNE visible
02 Feb 9.5 20:24:59 10° W 20:29:44 25° NNW 20:30:03 25° NNW visible
03 Feb 8.4 18:46:00 10° WSW 18:51:42 54° NW 18:55:53 19° NNE visible
03 Feb 9.7 20:34:53 10° WNW 20:39:21 22° NNW 20:39:25 22° NNW visible
04 Feb 8.0 17:08:57 10° SSW 17:14:34 52° ESE 17:20:13 10° NE visible
04 Feb 8.8 18:55:35 10° WSW 19:01:05 42° NW 19:05:12 17° NNE visible
04 Feb 9.9 20:44:48 10° WNW 20:48:43 20° NNW 20:48:43 20° NNW visible
05 Feb 7.8 17:17:54 10° SSW 17:23:42 72° ESE 17:29:32 10° NE visible
05 Feb 9.1 19:05:17 10° W 19:10:32 34° NNW 19:14:27 16° NNE visible
05 Feb 10.0 20:54:41 10° NW 20:57:59 18° NNW 20:57:59 18° NNW visible
06 Feb 7.9 17:27:04 10° SW 17:32:54 85° NW 17:38:48 10° NE visible
06 Feb 9.4 19:15:05 10° W 19:20:04 28° NNW 19:23:40 16° NNE visible
06 Feb 10.1 21:04:29 10° NW 21:07:11 17° NNW 21:07:11 17° NNW visible
07 Feb 8.2 17:36:24 10° SW 17:42:10 64° NW 17:48:01 10° NE visible
07 Feb 9.6 19:24:58 10° WNW 19:29:39 24° NNW 19:32:50 16° NNE visible
07 Feb 10.2 21:14:10 10° NW 21:16:21 16° NNW 21:16:21 16° NNW visible
